Wind_Speed
19 17 17 17 16 16 16 15 16 16 17 17 17 17 17 16 16 16 15 16 15 15 15 15 15 16 16 17 17 18 18 17 17 17 16 16 16 16 16 17 17 18 18 18
19 18 18 18 18 19 18 17 18 18 18 18 18 17 17 17 17 16 16 16 16 16 16 17 16 16 17 18 19 19 19 18 16 16 16 16 16 17 17 18 18 18 19 19
19 19 20 21 19 19 19 18 18 18 18 18 17 17 17 17 17 17 17 17 17 17 17 17 17 17 18 19 19 19 19 18 17 16 17 17 17 18 19 19 19 19 19 19
19 20 22 22 20 20 20 20 19 19 18 19 18 17 17 17 18 17 17 17 17 17 18 18 17 18 18 19 19 18 18 19 18 18 18 18 18 19 19 20 20 20 20 19
20 20 22 22 21 20 20 20 19 19 19 19 19 18 18 17 18 18 18 17 17 18 18 18 18 18 18 17 17 17 17 18 18 19 19 19 20 20 20 21 21 20 20 20
21 21 22 22 20 20 20 21 20 20 19 19 19 19 18 18 18 18 18 18 17 17 18 18 17 17 17 16 16 17 17 17 18 18 19 21 21 22 22 22 21 21 21 21
21 21 21 20 20 20 21 21 20 20 20 20 19 19 18 18 18 18 18 18 18 18 18 19 18 18 18 18 18 18 18 18 18 19 20 20 21 22 22 22 22 22 22 21
21 21 21 20 20 20 21 21 21 21 21 21 20 19 19 19 19 19 19 19 18 18 18 18 18 18 18 18 19 18 18 19 19 19 19 20 21 22 22 22 22 22 21 21
22 22 22 21 21 21 21 21 21 21 22 21 20 20 20 20 20 19 19 19 19 19 18 17 18 18 18 19 19 18 18 19 19 19 19 20 20 20 21 21 20 20 20 20
23 24 23 23 23 23 22 22 22 22 21 21 20 20 21 21 20 20 20 20 20 19 18 18 17 17 18 18 19 18 19 19 19 19 20 20 19 20 20 20 19 19 19 19
25 24 24 24 24 23 22 22 22 22 21 20 20 20 20 20 20 20 19 19 19 19 18 18 18 18 18 19 18 18 19 18 18 19 20 19 19 19 19 19 19 19 19 19
24 24 24 24 24 23 23 22 21 21 21 21 21 21 20 20 20 20 19 19 19 19 19 18 18 18 18 18 19 18 19 19 19 19 19 19 19 18 19 19 19 20 20 20
23 23 24 24 24 23 23 22 22 21 21 21 21 20 20 20 20 19 20 20 20 19 19 19 19 18 19 19 19 19 20 19 19 19 19 19 19 19 20 20 20 21 21 21
25 25 24 23 23 23 24 23 23 23 23 23 22 21 20 20 20 20 20 21 21 21 19 19 20 20 19 19 20 20 21 21 20 20 20 20 20 21 20 20 21 22 22 22
25 25 24 24 23 24 24 23 24 24 23 23 23 22 22 22 21 21 21 21 21 21 21 21 20 20 20 20 21 22 21 21 21 20 20 21 21 22 21 21 22 22 22 22
25 25 24 24 24 23 23 23 23 23 23 23 23 23 23 22 21 21 21 21 22 22 22 22 21 20 20 20 21 21 21 20 20 21 21 21 22 22 22 22 21 22 22 22
24 24 24 24 24 24 24 24 23 23 23 23 23 23 22 22 22 22 22 22 22 23 23 23 22 21 21 21 21 21 21 21 21 21 21 21 22 22 22 22 21 21 20 21
23 23 23 23 23 23 24 24 24 24 23 23 23 23 23 22 22 22 22 23 23 22 22 22 22 22 21 21 21 21 21 21 21 21 21 21 21 21 21 21 21 20 20 20
22 21 21 22 22 22 22 23 23 23 23 23 23 23 23 22 22 22 22 22 22 22 22 22 22 21 21 21 21 21 21 21 21 21 21 21 20 20 20 20 20 21 21 21
22 21 21 22 22 22 22 22 23 23 23 24 23 23 23 23 22 22 22 22 22 22 22 22 22 21 21 21 21 20 20 20 21 20 20 20 20 20 20 20 21 21 21 21
21 21 21 21 22 22 23 23 23 23 24 24 24 23 23 23 22 22 22 22 22 22 22 21 21 21 21 21 21 20 21 21 20 20 20 20 20 20 20 20 20 20 20 20
21 20 20 21 22 22 22 22 22 23 23 23 23 23 23 22 22 23 23 22 22 22 21 21 21 21 21 21 21 21 21 20 20 19 19 19 19 19 19 20 20 20 20 20
18 19 19 20 21 21 21 22 22 22 23 23 23 24 24 23 22 22 21 21 21 21 21 21 21 21 21 21 21 20 20 20 20 19 19 19 19 19 19 20 21 21 21 21
18 19 20 21 21 21 21 22 22 23 23 23 23 23 23 23 22 22 21 21 21 21 21 21 21 20 20 20 20 20 20 20 21 20 20 20 20 20 20 20 21 21 21 22
17 18 19 20 21 22 23 23 23 23 23 23 22 22 23 23 22 22 22 22 22 22 22 21 20 20 20 19 19 19 19 20 20 20 20 20 20 20 19 20 21 22 22 22
17 18 19 19 20 21 22 23 23 23 23 22 22 21 22 22 23 23 22 22 22 22 21 21 21 21 20 20 20 20 20 20 20 20 20 20 20 20 20 21 22 22 22 22
17 17 18 19 19 20 20 21 21 22 22 22 22 21 21 22 22 22 22 22 22 22 22 21 21 21 21 21 21 21 20 20 21 21 21 21 21 21 21 21 22 22 22 22
Wind_Direction
245 248 252 255 258 258 259 260 261 264 268 272 277 279 277 276 275 274 274 275 275 275 277 281 283 285 286 286 287 289 288 286 287 290 294 298 300 301 302 301 302 303 303 304
251 253 253 254 254 258 261 262 262 266 272 276 280 280 277 276 274 272 272 275 275 274 275 278 280 284 286 287 288 290 291 288 288 290 292 295 298 302 302 302 302 304 304 308
255 256 254 253 254 257 259 261 263 265 270 274 277 278 277 275 273 274 274 274 273 274 275 276 279 283 286 288 288 289 291 292 291 291 292 294 296 300 303 303 303 305 305 307
255 255 252 254 254 256 258 259 262 264 268 271 274 276 277 276 275 275 276 276 274 274 276 277 279 283 285 286 286 288 289 290 289 288 291 290 292 296 299 300 300 301 304 304
251 255 255 254 253 253 254 257 259 261 265 269 272 275 277 275 275 278 278 279 279 277 277 278 280 283 285 285 287 287 289 287 287 286 287 288 291 293 295 297 299 298 301 303
252 255 257 256 255 256 256 258 257 258 262 267 270 273 276 276 277 278 280 281 280 279 278 279 279 281 283 284 285 286 286 286 287 288 287 288 288 290 293 295 297 297 298 300
252 256 258 257 257 258 258 260 259 259 261 265 268 270 271 273 277 280 281 281 281 280 281 279 278 279 281 283 283 284 284 286 287 288 289 288 289 289 291 294 296 297 297 298
252 253 255 257 257 257 259 262 263 263 264 265 267 268 270 271 273 275 278 281 281 282 282 280 278 278 280 281 283 282 284 284 285 287 288 289 290 290 290 291 295 297 297 297
249 251 256 257 256 257 259 261 263 263 263 264 267 267 268 268 270 272 274 278 281 282 282 282 280 279 280 282 284 282 282 281 282 284 286 288 290 289 289 291 294 296 297 298
251 255 257 257 257 258 258 261 262 263 264 263 266 268 269 268 268 270 272 275 278 279 279 280 282 281 280 281 282 281 283 282 283 283 284 287 288 289 289 291 293 295 298 301
254 255 257 256 256 257 258 261 262 262 262 264 266 268 269 269 268 268 269 272 273 275 276 278 281 283 281 279 279 281 285 287 288 286 284 287 288 288 288 290 293 295 299 301
254 255 255 256 256 256 256 258 260 260 261 265 269 269 269 269 269 268 267 269 270 270 272 276 280 282 282 282 280 281 284 287 289 288 286 286 289 290 291 292 293 295 297 299
255 256 256 255 254 253 254 256 259 262 264 266 269 269 269 268 269 268 267 268 269 269 270 273 277 279 280 281 282 283 285 287 288 289 287 288 291 293 293 292 294 295 296 297
255 257 258 256 255 254 254 256 260 263 265 266 267 267 268 269 269 268 269 268 268 269 271 273 276 279 281 280 282 285 286 287 288 290 289 288 289 292 293 292 293 294 295 295
255 256 257 257 256 255 255 257 259 262 265 266 267 267 268 269 269 268 267 268 269 270 271 274 276 278 280 280 282 285 286 286 287 289 288 288 290 292 295 295 295 296 297 298
253 254 255 255 254 254 255 256 259 261 263 265 266 268 268 268 268 268 267 266 268 270 271 273 274 276 277 280 283 285 286 287 287 288 288 288 290 292 294 296 296 297 298 299
253 253 253 254 253 254 256 258 258 259 261 263 265 265 265 266 267 267 267 266 268 270 272 273 273 275 277 280 284 286 286 286 288 288 288 288 290 292 293 295 296 297 297 298
251 251 252 253 253 254 255 256 257 258 261 263 264 265 265 266 267 266 266 268 270 274 275 274 275 275 277 280 283 285 286 287 288 288 289 290 292 293 295 295 296 297 299 299
248 250 250 251 253 253 253 255 257 259 261 262 263 264 264 267 268 267 267 269 272 274 274 274 275 277 279 280 282 283 285 287 289 290 290 291 292 294 295 294 295 296 298 300
247 247 249 252 253 253 254 256 258 259 260 261 262 263 265 266 267 266 267 269 271 272 273 274 275 277 278 279 280 280 282 284 287 290 290 290 291 293 295 295 296 298 298 298
249 249 250 250 252 255 257 258 260 261 261 260 261 262 264 265 264 264 265 268 271 272 273 273 274 276 276 277 277 278 281 284 286 288 289 291 292 292 293 294 296 297 298 300
250 251 252 252 252 254 257 259 260 260 260 261 260 260 262 263 262 262 264 267 270 272 273 274 276 276 276 275 275 277 280 283 285 287 289 291 292 292 293 295 297 295 295 297
251 250 252 252 253 255 257 260 261 261 262 263 263 261 260 259 260 262 264 266 269 273 274 276 277 276 276 277 278 278 280 283 285 286 288 291 292 293 295 296 297 296 295 296
256 254 253 253 255 257 260 262 263 263 264 263 262 260 258 258 259 260 262 265 269 273 273 274 275 277 278 278 279 280 282 284 285 286 287 290 291 292 294 296 298 297 297 298
258 257 258 259 261 261 261 262 264 264 263 260 260 262 260 258 258 260 262 265 268 271 272 273 274 274 276 278 281 283 284 285 286 287 287 289 292 293 295 296 298 300 301 301
264 263 264 266 266 264 263 263 263 262 261 261 261 262 261 259 259 261 262 263 266 267 268 270 272 273 275 277 280 284 284 283 285 287 288 288 289 292 295 298 299 299 301 301
269 271 270 270 271 270 269 267 265 264 265 265 263 263 261 259 260 261 261 261 262 264 265 268 271 273 275 276 278 280 282 283 284 285 285 285 288 292 295 296 298 298 299 299
Height
5798 5799 5800 5801 5801 5802 5803 5804 5805 5805 5804 5803 5802 5801 5801 5801 5800 5800 5799 5799 5798 5798 5797 5796 5795 5793 5792 5791 5789 5788 5786 5785 5784 5782 5781 5779 5777 5775 5773 5771 5769 5766 5764 5761
5792 5794 5795 5795 5797 5798 5798 5799 5800 5800 5800 5799 5797 5797 5796 5796 5795 5795 5794 5794 5793 5793 5792 5791 5790 5789 5788 5786 5785 5783 5781 5780 5779 5777 5776 5775 5773 5771 5769 5767 5765 5762 5760 5757
5788 5789 5789 5790 5792 5793 5793 5794 5795 5795 5795 5794 5793 5792 5792 5791 5790 5790 5789 5789 5788 5787 5787 5786 5785 5784 5783 5781 5780 5778 5777 5775 5774 5773 5772 5771 5769 5767 5765 5763 5760 5758 5756 5753
5782 5783 5784 5787 5787 5787 5788 5788 5789 5789 5789 5788 5788 5787 5787 5786 5786 5785 5785 5784 5783 5782 5782 5781 5780 5779 5778 5776 5775 5773 5772 5771 5770 5769 5767 5766 5764 5763 5761 5758 5756 5753 5751 5749
5777 5777 5777 5779 5781 5781 5782 5782 5783 5784 5784 5783 5783 5782 5782 5781 5781 5780 5780 5779 5778 5777 5776 5776 5775 5774 5773 5771 5770 5769 5767 5766 5765 5764 5763 5761 5759 5758 5756 5753 5751 5749 5746 5744
5771 5771 5772 5774 5775 5775 5777 5777 5777 5778 5778 5778 5778 5778 5777 5776 5776 5775 5774 5774 5773 5772 5771 5770 5770 5769 5767 5766 5765 5764 5763 5762 5760 5759 5757 5755 5754 5752 5750 5748 5746 5743 5741 5739
5764 5765 5766 5767 5768 5770 5772 5772 5772 5772 5772 5772 5772 5773 5772 5771 5770 5770 5769 5768 5767 5767 5766 5765 5764 5763 5762 5761 5760 5759 5758 5756 5755 5754 5752 5750 5748 5746 5744 5742 5740 5738 5736 5733
5758 5759 5762 5762 5762 5764 5765 5765 5765 5765 5766 5766 5766 5766 5766 5765 5765 5764 5763 5763 5762 5761 5760 5759 5758 5758 5757 5756 5755 5753 5752 5751 5750 5748 5746 5744 5743 5741 5739 5737 5735 5732 5730 5727
5752 5754 5754 5755 5756 5757 5758 5759 5759 5759 5760 5760 5760 5760 5760 5760 5759 5758 5758 5757 5756 5756 5755 5754 5753 5752 5752 5751 5749 5748 5747 5745 5744 5743 5741 5739 5737 5735 5733 5731 5729 5727 5724 5721
5745 5746 5747 5748 5749 5750 5751 5752 5752 5753 5753 5754 5754 5754 5754 5753 5753 5753 5752 5751 5751 5750 5749 5749 5748 5747 5746 5745 5744 5743 5741 5739 5738 5737 5735 5734 5732 5730 5728 5726 5724 5721 5719 5716
5739 5740 5741 5742 5743 5744 5745 5745 5746 5746 5747 5747 5747 5747 5747 5747 5747 5746 5746 5745 5745 5744 5744 5743 5742 5742 5741 5739 5738 5737 5736 5734 5732 5731 5730 5728 5726 5725 5723 5721 5719 5716 5714 5711
5732 5733 5734 5735 5735 5736 5738 5739 5739 5740 5740 5741 5741 5741 5741 5740 5740 5740 5740 5739 5739 5738 5738 5737 5737 5736 5735 5734 5733 5731 5730 5728 5726 5725 5724 5722 5721 5719 5717 5715 5713 5710 5708 5706
5724 5725 5726 5727 5728 5730 5731 5732 5732 5733 5733 5734 5734 5734 5734 5734 5733 5733 5733 5733 5733 5732 5732 5732 5731 5730 5729 5728 5727 5725 5724 5722 5721 5719 5718 5716 5715 5713 5711 5710 5707 5705 5702 5700
5717 5718 5719 5720 5721 5723 5724 5725 5725 5726 5726 5727 5727 5727 5727 5727 5727 5727 5726 5726 5726 5726 5726 5725 5725 5724 5722 5722 5720 5719 5718 5716 5715 5713 5712 5711 5709 5707 5705 5703 5701 5699 5696 5693
5709 5710 5712 5713 5714 5715 5716 5717 5718 5718 5719 5719 5720 5720 5720 5720 5720 5720 5720 5720 5720 5720 5719 5719 5718 5717 5716 5715 5714 5713 5711 5710 5708 5707 5706 5704 5703 5701 5699 5697 5694 5692 5689 5687
5701 5703 5704 5706 5707 5708 5709 5709 5710 5711 5711 5712 5712 5713 5713 5713 5713 5713 5713 5713 5713 5713 5712 5712 5711 5710 5710 5709 5707 5706 5705 5703 5702 5701 5699 5698 5696 5694 5692 5690 5688 5685 5683 5680
5694 5695 5697 5698 5699 5700 5701 5702 5702 5703 5703 5704 5705 5705 5706 5706 5706 5706 5706 5706 5706 5706 5706 5705 5704 5703 5703 5702 5701 5699 5698 5697 5695 5694 5693 5691 5690 5688 5686 5684 5681 5679 5677 5674
5686 5688 5689 5690 5692 5693 5693 5694 5695 5695 5696 5696 5697 5698 5698 5699 5699 5699 5699 5699 5699 5699 5698 5698 5697 5697 5696 5695 5694 5693 5691 5690 5689 5687 5686 5684 5683 5681 5679 5677 5675 5673 5671 5668
5679 5681 5682 5683 5684 5685 5686 5687 5687 5688 5688 5689 5690 5690 5691 5691 5691 5691 5692 5692 5692 5691 5691 5690 5690 5690 5689 5688 5687 5686 5685 5683 5682 5681 5679 5678 5676 5674 5673 5671 5669 5667 5664 5662
5672 5674 5675 5676 5677 5678 5679 5680 5680 5681 5681 5681 5682 5682 5683 5683 5683 5684 5684 5684 5684 5684 5684 5683 5683 5682 5682 5681 5680 5679 5678 5677 5676 5674 5673 5671 5670 5668 5666 5664 5662 5660 5658 5655
5665 5666 5668 5669 5670 5671 5672 5672 5673 5673 5673 5673 5674 5674 5675 5675 5675 5676 5676 5677 5677 5676 5676 5676 5675 5675 5675 5674 5673 5672 5671 5670 5669 5667 5666 5664 5663 5661 5659 5658 5656 5654 5652 5649
5658 5659 5660 5662 5663 5664 5665 5665 5665 5665 5665 5666 5666 5667 5667 5667 5668 5668 5669 5669 5669 5669 5669 5669 5668 5668 5667 5667 5666 5665 5664 5663 5662 5661 5660 5658 5657 5655 5653 5651 5649 5647 5645 5643
5651 5653 5654 5655 5656 5657 5657 5658 5658 5658 5658 5658 5658 5659 5659 5660 5660 5661 5661 5662 5662 5662 5662 5661 5661 5660 5660 5659 5659 5658 5657 5656 5655 5654 5653 5652 5650 5649 5647 5645 5643 5641 5639 5637
5645 5646 5647 5648 5648 5649 5650 5650 5650 5651 5650 5651 5651 5651 5651 5652 5653 5653 5654 5654 5655 5655 5655 5654 5654 5653 5653 5652 5651 5651 5650 5649 5649 5648 5647 5645 5644 5642 5640 5639 5637 5635 5632 5630
5639 5640 5640 5641 5641 5641 5642 5642 5642 5642 5642 5642 5643 5643 5644 5644 5645 5646 5647 5647 5647 5647 5647 5647 5647 5647 5646 5646 5645 5644 5644 5643 5642 5641 5640 5639 5637 5636 5634 5632 5630 5628 5625 5623
5633 5633 5633 5633 5633 5634 5634 5634 5634 5634 5634 5635 5635 5636 5636 5637 5638 5638 5639 5639 5640 5640 5640 5640 5640 5640 5639 5639 5638 5638 5637 5636 5635 5634 5633 5632 5631 5629 5627 5625 5623 5621 5619 5616
5627 5627 5627 5627 5626 5626 5626 5626 5626 5626 5626 5627 5627 5628 5628 5629 5630 5630 5631 5631 5632 5632 5632 5632 5632 5632 5632 5632 5631 5631 5630 5629 5628 5627 5626 5625 5624 5622 5620 5619 5616 5614 5612 5609